• In Österreich
  • Länderverzeichnis
  • Für 7 Tage
  • Wassertemperatur
  • Satellitenkarten
  • Wetterkarte
  • News
  • Widgets
  • user-avatar
    Anmelden

    Stündliche Wetter Pernik

    Heute, 25 Februar, Sonntag

    Zeit Temperatur Niederschläge Wind Luftdruck Luftfeuchtigkeit
    00:00 -3°C° 0,1 mm 2 m/S 686 mmHg 85%
    01:00 -4°C° 0,1 mm 2 m/S 686 mmHg 84%
    02:00 -5°C° 0 mm 3 m/S 686 mmHg 84%
    03:00 -5°C° 0,1 mm 3 m/S 686 mmHg 83%
    04:00 -6°C° 0,1 mm 3 m/S 686 mmHg 83%
    05:00 -5°C° 0,1 mm 2 m/S 686 mmHg 82%
    06:00 -5°C° 0 mm 2 m/S 687 mmHg 81%
    07:00 -5°C° 0 mm 2 m/S 687 mmHg 79%
    08:00 -5°C° 0 mm 2 m/S 687 mmHg 78%
    09:00 -5°C° 0,2 mm 2 m/S 687 mmHg 77%
    10:00 -4°C° 0,2 mm 2 m/S 687 mmHg 75%
    11:00 -4°C° 0,2 mm 2 m/S 687 mmHg 74%
    12:00 -4°C° 0,5 mm 2 m/S 687 mmHg 76%
    13:00 -4°C° 0,5 mm 2 m/S 687 mmHg 79%
    14:00 -4°C° 0,5 mm 2 m/S 687 mmHg 81%
    15:00 -4°C° 0,6 mm 2 m/S 687 mmHg 83%
    16:00 -4°C° 0,6 mm 2 m/S 687 mmHg 85%
    17:00 -4°C° 0,6 mm 2 m/S 686 mmHg 87%
    18:00 -5°C° 0,6 mm 2 m/S 686 mmHg 89%
    19:00 -5°C° 0,6 mm 2 m/S 686 mmHg 90%
    20:00 -6°C° 0,6 mm 2 m/S 686 mmHg 92%
    21:00 -6°C° 0,4 mm 2 m/S 686 mmHg 91%
    22:00 -6°C° 0,4 mm 2 m/S 686 mmHg 91%
    23:00 -6°C° 0,4 mm 2 m/S 685 mmHg 91%

    Morgen, 26 Februar, Montag

    Zeit Temperatur Niederschläge Wind Luftdruck Luftfeuchtigkeit
    00:00 -6°C° 0,5 mm 2 m/S 685 mmHg 91%
    01:00 -7°C° 0,5 mm 3 m/S 684 mmHg 92%
    02:00 -8°C° 0,5 mm 3 m/S 684 mmHg 92%
    03:00 -8°C° 0,9 mm 3 m/S 684 mmHg 92%
    04:00 -8°C° 0,9 mm 3 m/S 683 mmHg 93%
    05:00 -8°C° 0,9 mm 3 m/S 683 mmHg 93%
    06:00 -8°C° 0,9 mm 3 m/S 682 mmHg 93%
    07:00 -8°C° 0,9 mm 3 m/S 682 mmHg 93%
    08:00 -8°C° 0,9 mm 3 m/S 682 mmHg 93%
    09:00 -9°C° 0,8 mm 4 m/S 682 mmHg 92%
    10:00 -9°C° 0,8 mm 4 m/S 682 mmHg 91%
    11:00 -8°C° 0,8 mm 4 m/S 682 mmHg 91%
    12:00 -8°C° 0,7 mm 4 m/S 681 mmHg 90%
    13:00 -8°C° 0,7 mm 4 m/S 681 mmHg 90%
    14:00 -8°C° 0,7 mm 4 m/S 681 mmHg 89%
    15:00 -9°C° 0,4 mm 4 m/S 681 mmHg 89%
    16:00 -9°C° 0,4 mm 3 m/S 681 mmHg 90%
    17:00 -9°C° 0,4 mm 3 m/S 681 mmHg 90%
    18:00 -10°C° 0,3 mm 3 m/S 681 mmHg 91%
    19:00 -12°C° 0,3 mm 3 m/S 681 mmHg 91%
    20:00 -10°C° 0,3 mm 2 m/S 681 mmHg 92%
    21:00 -12°C° 0,1 mm 2 m/S 681 mmHg 92%
    22:00 -12°C° 0,1 mm 2 m/S 681 mmHg 92%
    23:00 -13°C° 0,1 mm 2 m/S 681 mmHg 92%

    übermorgen, 27 Februar, Dienstag

    Zeit Temperatur Niederschläge Wind Luftdruck Luftfeuchtigkeit
    00:00 -13°C° 0,1 mm 2 m/S 681 mmHg 92%
    01:00 -13°C° 0,1 mm 2 m/S 681 mmHg 93%
    02:00 -13°C° 0,1 mm 2 m/S 680 mmHg 93%
    03:00 -10°C° 0,4 mm 1 m/S 680 mmHg 93%
    04:00 -10°C° 0,4 mm 1 m/S 680 mmHg 93%
    05:00 -10°C° 0,4 mm 1 m/S 680 mmHg 94%
    06:00 -10°C° 0,2 mm 1 m/S 680 mmHg 93%
    07:00 -10°C° 0,2 mm 1 m/S 681 mmHg 92%
    08:00 -9°C° 0,2 mm 1 m/S 681 mmHg 92%
    09:00 -8°C° 0,1 mm 1 m/S 681 mmHg 90%
    10:00 -6°C° 0,1 mm 1 m/S 682 mmHg 87%
    11:00 -4°C° 0,1 mm 1 m/S 682 mmHg 85%
    12:00 -3°C° 0,1 mm 1 m/S 682 mmHg 85%
    13:00 -2°C° 0,1 mm 1 m/S 682 mmHg 84%
    14:00 -1°C° 0,1 mm 1 m/S 683 mmHg 84%
    15:00 -1°C° 0,1 mm 1 m/S 683 mmHg 85%
    16:00 -1°C° 0,1 mm 1 m/S 683 mmHg 85%
    17:00 -2°C° 0,1 mm 1 m/S 683 mmHg 86%
    18:00 -3°C° 0,1 mm 1 m/S 684 mmHg 87%
    19:00 -6°C° 0,1 mm 1 m/S 684 mmHg 89%
    20:00 -7°C° 0,1 mm 1 m/S 684 mmHg 90%
    21:00 -7°C° 0 mm 1 m/S 685 mmHg 90%
    22:00 -7°C° 0 mm 1 m/S 685 mmHg 89%
    23:00 -7°C° 0 mm 1 m/S 685 mmHg 89%

    28 Februar, Mittwoch

    Zeit Temperatur Niederschläge Wind Luftdruck Luftfeuchtigkeit
    00:00 -7°C° 0,1 mm 1 m/S 685 mmHg 89%
    01:00 -7°C° 0,1 mm 1 m/S 685 mmHg 90%
    02:00 -7°C° 0,1 mm 1 m/S 685 mmHg 91%
    03:00 -7°C° 0,3 mm 1 m/S 685 mmHg 92%
    04:00 -7°C° 0,3 mm 1 m/S 685 mmHg 93%
    05:00 -7°C° 0,3 mm 1 m/S 685 mmHg 94%
    06:00 -8°C° 0,4 mm 2 m/S 685 mmHg 94%
    07:00 -8°C° 0,4 mm 2 m/S 685 mmHg 94%
    08:00 -8°C° 0,4 mm 2 m/S 685 mmHg 94%
    09:00 -8°C° 0,3 mm 2 m/S 685 mmHg 92%
    10:00 -7°C° 0,3 mm 2 m/S 685 mmHg 91%
    11:00 -6°C° 0,3 mm 2 m/S 685 mmHg 89%
    12:00 -6°C° 0,2 mm 2 m/S 685 mmHg 89%
    13:00 -6°C° 0,2 mm 2 m/S 685 mmHg 89%
    14:00 -7°C° 0,2 mm 3 m/S 685 mmHg 88%
    15:00 -6°C° 0,2 mm 2 m/S 685 mmHg 89%
    16:00 -7°C° 0,2 mm 2 m/S 685 mmHg 89%
    17:00 -7°C° 0,2 mm 2 m/S 686 mmHg 90%
    18:00 -8°C° 0,1 mm 2 m/S 686 mmHg 91%
    19:00 -9°C° 0,1 mm 2 m/S 687 mmHg 91%
    20:00 -9°C° 0,1 mm 1 m/S 687 mmHg 92%
    21:00 -10°C° 0 mm 1 m/S 688 mmHg 92%
    22:00 -11°C° 0 mm 1 m/S 688 mmHg 91%
    23:00 -11°C° 0 mm 1 m/S 689 mmHg 91%

    1 März, Donnerstag

    Zeit Temperatur Niederschläge Wind Luftdruck Luftfeuchtigkeit
    00:00 -12°C° 0 mm 1 m/S 689 mmHg 90%
    01:00 -12°C° 0 mm 1 m/S 689 mmHg 90%
    02:00 -13°C° 0 mm 1 m/S 689 mmHg 90%
    03:00 -13°C° 0 mm 1 m/S 689 mmHg 89%
    04:00 -13°C° 0 mm 1 m/S 689 mmHg 89%
    05:00 -14°C° 0 mm 1 m/S 689 mmHg 88%
    06:00 -13°C° 0 mm 1 m/S 689 mmHg 87%
    07:00 -13°C° 0 mm 1 m/S 690 mmHg 86%
    08:00 -12°C° 0 mm 1 m/S 690 mmHg 84%
    09:00 -10°C° 0 mm 1 m/S 691 mmHg 80%
    10:00 -7°C° 0 mm 1 m/S 691 mmHg 76%
    11:00 -3°C° 0 mm 1 m/S 691 mmHg 71%
    12:00 -2°C° 0 mm 1 m/S 691 mmHg 71%
    13:00 -1°C° 0 mm 1 m/S 691 mmHg 71%
    14:00 0°C° 0 mm 1 m/S 690 mmHg 70%
    15:00 0°C° 0 mm 1 m/S 690 mmHg 73%
    16:00 0°C° 0 mm 1 m/S 690 mmHg 75%
    17:00 0°C° 0 mm 1 m/S 689 mmHg 78%
    18:00 -1°C° 0 mm 1 m/S 689 mmHg 79%
    19:00 -3°C° 0 mm 1 m/S 689 mmHg 81%
    20:00 -4°C° 0 mm 1 m/S 689 mmHg 82%
    21:00 -4°C° 0 mm 1 m/S 689 mmHg 83%
    22:00 -4°C° 0 mm 1 m/S 689 mmHg 83%
    23:00 -4°C° 0 mm 1 m/S 689 mmHg 83%

    2 März, Freitag

    Zeit Temperatur Niederschläge Wind Luftdruck Luftfeuchtigkeit
    00:00 -4°C° 0,1 mm 1 m/S 689 mmHg 86%
    01:00 -3°C° 0,1 mm 1 m/S 689 mmHg 88%
    02:00 -3°C° 0,1 mm 1 m/S 689 mmHg 90%
    03:00 -3°C° 0,1 mm 1 m/S 688 mmHg 90%
    04:00 -2°C° 0,1 mm 1 m/S 688 mmHg 90%
    05:00 -2°C° 0,1 mm 1 m/S 687 mmHg 91%
    06:00 -2°C° 0,1 mm 1 m/S 687 mmHg 91%
    07:00 -1°C° 0,1 mm 1 m/S 687 mmHg 90%
    08:00 -1°C° 0,1 mm 1 m/S 687 mmHg 90%
    09:00 -2°C° 0,3 mm 2 m/S 687 mmHg 91%
    10:00 -1°C° 0,3 mm 2 m/S 687 mmHg 93%
    11:00 +1°C° 0,3 mm 2 m/S 687 mmHg 94%
    12:00 +1°C° 0,3 mm 2 m/S 687 mmHg 94%
    13:00 +2°C° 0,3 mm 2 m/S 686 mmHg 95%
    14:00 +2°C° 0,3 mm 2 m/S 686 mmHg 95%
    15:00 +2°C° 0,4 mm 2 m/S 686 mmHg 96%
    16:00 +2°C° 0,4 mm 2 m/S 685 mmHg 96%
    17:00 +2°C° 0,4 mm 2 m/S 685 mmHg 97%
    18:00 +1°C° 0,4 mm 2 m/S 685 mmHg 96%
    19:00 +1°C° 0,4 mm 2 m/S 685 mmHg 95%
    20:00 +1°C° 0,4 mm 2 m/S 685 mmHg 94%
    21:00 +2°C° 0,3 mm 1 m/S 685 mmHg 94%
    22:00 +2°C° 0,3 mm 1 m/S 685 mmHg 94%
    23:00 +2°C° 0,3 mm 1 m/S 685 mmHg 94%
    Mehr zeigen